Location: Ferma
(41.9500°N, 44.5167°E)
Time: 12:05:50
(UTC+00:00)

Cosmos 1269 Rocket - Pass Details

Date: 06 June 2022
Orbit: 773 x 778 km, 74.1° (Epoch: 01 July)

Event Time Altitude Azimuth Distance (km) Brightness Sun altitude
Rises 19:32:05 0° 349° (N) 3,258 8.7 -22.2°
Reaches altitude 10° 19:34:48 10° 1° (N) 2,327 7.4 -22.4°
Maximum altitude 19:39:20 28° 60° (ENE) 1,421 5.4 -22.7°
Enters shadow 19:41:05 23° 92° (E) 1,589 5.4 -22.8°
